Tracking 34408 objects as of 14-Jun-2026
HD Live streaming from Space Station
objects crossing your sky now

DELTA 1 DEB

Track DELTA 1 DEB now!
10-day predictions


NORAD ID: 7166
Int'l Code: 1973-086EE
Perigee: 1,498.3 km
Apogee: 1,516.6 km
Inclination: 102.2 °
Period: 116.0 minutes
Semi major axis: 7878 km
RCS: 0.0457 m2 (small)
Launch date: November 6, 1973
Source: United States (US)
Launch site: AIR FORCE WESTERN TEST RANGE (AFWTR)

Note: This is SATELLITE DEBRIS
Your satellite tracking list
Your tracking list is empty




NASA's NSSDC Master Catalog

Two Line Element Set (TLE):
1 07166U 73086EE  26157.63007578  .00000058  00000-0  76445-3 0  9993
2 07166 102.2387 163.7333 0011619 288.7180 191.7115 12.41490344379302
Source of the keplerian elements: AFSPC